owner,sensor,date,latitude,longitude,sea_surface_height_above_sea_level,qcFlag 
COMPS,ioos:station:USF.COMPS:ARP:1,2018-01-01T01:12:00Z,28.4330,-82.6670,-9.997,1111122 
COMPS,ioos:station:USF.COMPS:ARP:1,2018-01-01T01:18:00Z,28.4330,-82.6670,-9.971,1111122 
COMPS,ioos:station:USF.COMPS:ARP:1,2018-01-01T01:24:00Z,28.4330,-82.6670,-9.946,1111122 
COMPS,ioos:station:USF.COMPS:ARP:1,2018-01-01T01:30:00Z,28.4330,-82.6670,-9.922,1111122 
COMPS,ioos:station:USF.COMPS:ARP:1,2018-01-01T01:36:00Z,28.4330,-82.6670,-9.897,1111122 
COMPS,ioos:station:USF.COMPS:ARP:1,2018-01-01T01:42:00Z,28.4330,-82.6670,-9.87,1111122 
COMPS,ioos:station:USF.COMPS:ARP:1,2018-01-01T01:48:00Z,28.4330,-82.6670,-9.839,1111122 
COMPS,ioos:station:USF.COMPS:ARP:1,2018-01-01T01:54:00Z,28.4330,-82.6670,-9.813,1111122 
COMPS,ioos:station:USF.COMPS:ARP:1,2018-01-01T02:00:00Z,28.4330,-82.6670,-9.785,1111122 
COMPS,ioos:station:USF.COMPS:ARP:1,2018-01-01T02:06:00Z,28.4330,-82.6670,-9.758,1111122 
COMPS,ioos:station:USF.COMPS:ARP:1,2018-01-01T02:12:00Z,28.4330,-82.6670,-9.732,1111122 
COMPS,ioos:station:USF.COMPS:ARP:1,2018-01-01T02:18:00Z,28.4330,-82.6670,-9.706,1111122 
COMPS,ioos:station:USF.COMPS:ARP:1,2018-01-01T02:24:00Z,28.4330,-82.6670,-9.68,1111122 
COMPS,ioos:station:USF.COMPS:ARP:1,2018-01-01T02:30:00Z,28.4330,-82.6670,-9.649,1111122 
COMPS,ioos:station:USF.COMPS:ARP:1,2018-01-01T02:36:00Z,28.4330,-82.6670,-9.629,1111122 
COMPS,ioos:station:USF.COMPS:ARP:1,2018-01-01T02:42:00Z,28.4330,-82.6670,-9.605,1111122 
COMPS,ioos:station:USF.COMPS:ARP:1,2018-01-01T02:48:00Z,28.4330,-82.6670,-9.572,1111122 
COMPS,ioos:station:USF.COMPS:ARP:1,2018-01-01T02:54:00Z,28.4330,-82.6670,-9.548,1111122 
COMPS,ioos:station:USF.COMPS:ARP:1,2018-01-01T03:00:00Z,28.4330,-82.6670,-9.53,1111122 
COMPS,ioos:station:USF.COMPS:ARP:1,2018-01-01T03:06:00Z,28.4330,-82.6670,-9.507,1111122 
COMPS,ioos:station:USF.COMPS:ARP:1,2018-01-01T03:12:00Z,28.4330,-82.6670,-9.493,1111122 
COMPS,ioos:station:USF.COMPS:ARP:1,2018-01-01T03:18:00Z,28.4330,-82.6670,-9.465,1111122 
COMPS,ioos:station:USF.COMPS:ARP:1,2018-01-01T03:24:00Z,28.4330,-82.6670,-9.45,1111122 
COMPS,ioos:station:USF.COMPS:ARP:1,2018-01-01T03:30:00Z,28.4330,-82.6670,-9.44,1111122 
COMPS,ioos:station:USF.COMPS:ARP:1,2018-01-01T03:36:00Z,28.4330,-82.6670,-9.429,1111122 
COMPS,ioos:station:USF.COMPS:ARP:1,2018-01-01T03:42:00Z,28.4330,-82.6670,-9.418,1111122 
COMPS,ioos:station:USF.COMPS:ARP:1,2018-01-01T03:48:00Z,28.4330,-82.6670,-9.407,1111122 
COMPS,ioos:station:USF.COMPS:ARP:1,2018-01-01T03:54:00Z,28.4330,-82.6670,-9.405,1111122 
COMPS,ioos:station:USF.COMPS:ARP:1,2018-01-01T04:00:00Z,28.4330,-82.6670,-9.391,1111122 
COMPS,ioos:station:USF.COMPS:ARP:1,2018-01-01T04:06:00Z,28.4330,-82.6670,-9.392,1111122 
COMPS,ioos:station:USF.COMPS:ARP:1,2018-01-01T04:12:00Z,28.4330,-82.6670,-9.39,1111122 
COMPS,ioos:station:USF.COMPS:ARP:1,2018-01-01T04:18:00Z,28.4330,-82.6670,-9.385,1111122 
COMPS,ioos:station:USF.COMPS:ARP:1,2018-01-01T04:24:00Z,28.4330,-82.6670,-9.376,1111122 
COMPS,ioos:station:USF.COMPS:ARP:1,2018-01-01T04:30:00Z,28.4330,-82.6670,-9.376,1111122 
COMPS,ioos:station:USF.COMPS:ARP:1,2018-01-01T04:36:00Z,28.4330,-82.6670,-9.364,1111122 
COMPS,ioos:station:USF.COMPS:ARP:1,2018-01-01T04:42:00Z,28.4330,-82.6670,-9.363,1111122 
COMPS,ioos:station:USF.COMPS:ARP:1,2018-01-01T04:48:00Z,28.4330,-82.6670,-9.374,1111122 
COMPS,ioos:station:USF.COMPS:ARP:1,2018-01-01T04:54:00Z,28.4330,-82.6670,-9.379,1111122 
COMPS,ioos:station:USF.COMPS:ARP:1,2018-01-01T05:00:00Z,28.4330,-82.6670,-9.39,1111122 
COMPS,ioos:station:USF.COMPS:ARP:1,2018-01-01T05:06:00Z,28.4330,-82.6670,-9.417,1111122 
COMPS,ioos:station:USF.COMPS:ARP:1,2018-01-01T05:12:00Z,28.4330,-82.6670,-9.44,1111122 
COMPS,ioos:station:USF.COMPS:ARP:1,2018-01-01T05:18:00Z,28.4330,-82.6670,-9.447,1111122 
COMPS,ioos:station:USF.COMPS:ARP:1,2018-01-01T05:24:00Z,28.4330,-82.6670,-9.47,1111122 
COMPS,ioos:station:USF.COMPS:ARP:1,2018-01-01T05:30:00Z,28.4330,-82.6670,-9.464,1111122 
COMPS,ioos:station:USF.COMPS:ARP:1,2018-01-01T05:36:00Z,28.4330,-82.6670,-9.488,1111122 
COMPS,ioos:station:USF.COMPS:ARP:1,2018-01-01T05:42:00Z,28.4330,-82.6670,-9.501,1111122 
COMPS,ioos:station:USF.COMPS:ARP:1,2018-01-01T05:48:00Z,28.4330,-82.6670,-9.517,1111122 
COMPS,ioos:station:USF.COMPS:ARP:1,2018-01-01T05:54:00Z,28.4330,-82.6670,-9.529,1111122 
COMPS,ioos:station:USF.COMPS:ARP:1,2018-01-01T06:00:00Z,28.4330,-82.6670,-9.551,1111122 
COMPS,ioos:station:USF.COMPS:ARP:1,2018-01-01T06:06:00Z,28.4330,-82.6670,-9.57,1111122 
COMPS,ioos:station:USF.COMPS:ARP:1,2018-01-01T06:12:00Z,28.4330,-82.6670,-9.599,1111122 
COMPS,ioos:station:USF.COMPS:ARP:1,2018-01-01T06:18:00Z,28.4330,-82.6670,-9.62,1111122 
COMPS,ioos:station:USF.COMPS:ARP:1,2018-01-01T06:24:00Z,28.4330,-82.6670,-9.642,1111122 
COMPS,ioos:station:USF.COMPS:ARP:1,2018-01-01T06:30:00Z,28.4330,-82.6670,-9.643,1111122 
COMPS,ioos:station:USF.COMPS:ARP:1,2018-01-01T06:36:00Z,28.4330,-82.6670,-9.683,1111122 
COMPS,ioos:station:USF.COMPS:ARP:1,2018-01-01T06:42:00Z,28.4330,-82.6670,-9.706,1111122 
COMPS,ioos:station:USF.COMPS:ARP:1,2018-01-01T06:48:00Z,28.4330,-82.6670,-9.726,1111122 
COMPS,ioos:station:USF.COMPS:ARP:1,2018-01-01T06:54:00Z,28.4330,-82.6670,-9.746,1111122 
COMPS,ioos:station:USF.COMPS:ARP:1,2018-01-01T07:00:00Z,28.4330,-82.6670,-9.767,1111122 
COMPS,ioos:station:USF.COMPS:ARP:1,2018-01-01T07:06:00Z,28.4330,-82.6670,-9.784,1111122 
COMPS,ioos:station:USF.COMPS:ARP:1,2018-01-01T07:12:00Z,28.4330,-82.6670,-9.806,1111122 
COMPS,ioos:station:USF.COMPS:ARP:1,2018-01-01T07:18:00Z,28.4330,-82.6670,-9.827,1111122 
COMPS,ioos:station:USF.COMPS:ARP:1,2018-01-01T07:24:00Z,28.4330,-82.6670,-9.848,1111122 
COMPS,ioos:station:USF.COMPS:ARP:1,2018-01-01T07:30:00Z,28.4330,-82.6670,-9.871,1111122 
COMPS,ioos:station:USF.COMPS:ARP:1,2018-01-01T07:36:00Z,28.4330,-82.6670,-9.893,1111122 
COMPS,ioos:station:USF.COMPS:ARP:1,2018-01-01T07:42:00Z,28.4330,-82.6670,-9.914,1111122 
COMPS,ioos:station:USF.COMPS:ARP:1,2018-01-01T07:48:00Z,28.4330,-82.6670,-9.936,1111122 
COMPS,ioos:station:USF.COMPS:ARP:1,2018-01-01T07:54:00Z,28.4330,-82.6670,-9.955,1111122 
COMPS,ioos:station:USF.COMPS:ARP:1,2018-01-01T08:00:00Z,28.4330,-82.6670,-9.974,1111122 
COMPS,ioos:station:USF.COMPS:ARP:1,2018-01-01T08:06:00Z,28.4330,-82.6670,-9.995,1111122 
COMPS,ioos:station:USF.COMPS:ARP:1,2018-01-03T05:30:00Z,28.4330,-82.6670,-9.966,1111122 
COMPS,ioos:station:USF.COMPS:ARP:1,2018-01-03T05:36:00Z,28.4330,-82.6670,-9.931,1111122 
COMPS,ioos:station:USF.COMPS:ARP:1,2018-01-03T05:42:00Z,28.4330,-82.6670,-9.905,1111122 
COMPS,ioos:station:USF.COMPS:ARP:1,2018-01-03T05:48:00Z,28.4330,-82.6670,-9.882,1111122 
COMPS,ioos:station:USF.COMPS:ARP:1,2018-01-03T05:54:00Z,28.4330,-82.6670,-9.857,1111122 
COMPS,ioos:station:USF.COMPS:ARP:1,2018-01-03T06:00:00Z,28.4330,-82.6670,-9.838,1111122 
COMPS,ioos:station:USF.COMPS:ARP:1,2018-01-03T06:06:00Z,28.4330,-82.6670,-9.823,1111122 
COMPS,ioos:station:USF.COMPS:ARP:1,2018-01-03T06:12:00Z,28.4330,-82.6670,-9.809,1111122 
COMPS,ioos:station:USF.COMPS:ARP:1,2018-01-03T06:18:00Z,28.4330,-82.6670,-9.798,1111122 
COMPS,ioos:station:USF.COMPS:ARP:1,2018-01-03T06:24:00Z,28.4330,-82.6670,-9.786,1111122 
COMPS,ioos:station:USF.COMPS:ARP:1,2018-01-03T06:30:00Z,28.4330,-82.6670,-9.792,1111122 
COMPS,ioos:station:USF.COMPS:ARP:1,2018-01-03T06:36:00Z,28.4330,-82.6670,-9.8,1111122 
COMPS,ioos:station:USF.COMPS:ARP:1,2018-01-03T06:42:00Z,28.4330,-82.6670,-9.811,1111122 
COMPS,ioos:station:USF.COMPS:ARP:1,2018-01-03T06:48:00Z,28.4330,-82.6670,-9.813,1111122 
COMPS,ioos:station:USF.COMPS:ARP:1,2018-01-03T06:54:00Z,28.4330,-82.6670,-9.814,1111122 
COMPS,ioos:station:USF.COMPS:ARP:1,2018-01-03T07:00:00Z,28.4330,-82.6670,-9.811,1111122 
COMPS,ioos:station:USF.COMPS:ARP:1,2018-01-03T07:06:00Z,28.4330,-82.6670,-9.81,1111122 
COMPS,ioos:station:USF.COMPS:ARP:1,2018-01-03T07:12:00Z,28.4330,-82.6670,-9.803,1111122 
COMPS,ioos:station:USF.COMPS:ARP:1,2018-01-03T07:18:00Z,28.4330,-82.6670,-9.807,1111122 
COMPS,ioos:station:USF.COMPS:ARP:1,2018-01-03T07:24:00Z,28.4330,-82.6670,-9.804,1111122 
COMPS,ioos:station:USF.COMPS:ARP:1,2018-01-03T07:30:00Z,28.4330,-82.6670,-9.81,1111122 
COMPS,ioos:station:USF.COMPS:ARP:1,2018-01-03T07:36:00Z,28.4330,-82.6670,-9.803,1111122 
COMPS,ioos:station:USF.COMPS:ARP:1,2018-01-03T07:42:00Z,28.4330,-82.6670,-9.816,1111122 
COMPS,ioos:station:USF.COMPS:ARP:1,2018-01-03T07:48:00Z,28.4330,-82.6670,-9.834,1111122 
COMPS,ioos:station:USF.COMPS:ARP:1,2018-01-03T07:54:00Z,28.4330,-82.6670,-9.849,1111122 
COMPS,ioos:station:USF.COMPS:ARP:1,2018-01-03T08:00:00Z,28.4330,-82.6670,-9.851,1111122 
COMPS,ioos:station:USF.COMPS:ARP:1,2018-01-03T08:06:00Z,28.4330,-82.6670,-9.876,1111122 
COMPS,ioos:station:USF.COMPS:ARP:1,2018-01-03T08:12:00Z,28.4330,-82.6670,-9.888,1111122 
COMPS,ioos:station:USF.COMPS:ARP:1,2018-01-03T08:18:00Z,28.4330,-82.6670,-9.902,1111122 
COMPS,ioos:station:USF.COMPS:ARP:1,2018-01-03T08:24:00Z,28.4330,-82.6670,-9.914,1111122 
COMPS,ioos:station:USF.COMPS:ARP:1,2018-01-03T08:30:00Z,28.4330,-82.6670,-9.921,1111122 
COMPS,ioos:station:USF.COMPS:ARP:1,2018-01-03T08:36:00Z,28.4330,-82.6670,-9.927,1111122 
COMPS,ioos:station:USF.COMPS:ARP:1,2018-01-03T08:42:00Z,28.4330,-82.6670,-9.937,1111122 
COMPS,ioos:station:USF.COMPS:ARP:1,2018-01-03T08:48:00Z,28.4330,-82.6670,-9.948,1111122 
COMPS,ioos:station:USF.COMPS:ARP:1,2018-01-03T08:54:00Z,28.4330,-82.6670,-9.945,1111122 
COMPS,ioos:station:USF.COMPS:ARP:1,2018-01-03T09:00:00Z,28.4330,-82.6670,-9.96,1111122 
COMPS,ioos:station:USF.COMPS:ARP:1,2018-01-03T09:06:00Z,28.4330,-82.6670,-9.964,1111122 
COMPS,ioos:station:USF.COMPS:ARP:1,2018-01-03T09:12:00Z,28.4330,-82.6670,-9.974,1111122 
COMPS,ioos:station:USF.COMPS:ARP:1,2018-01-03T09:18:00Z,28.4330,-82.6670,-9.989,1111122 
COMPS,ioos:station:USF.COMPS:ARP:1,2018-01-03T19:48:00Z,28.4330,-82.6670,-9.978,1111122 
COMPS,ioos:station:USF.COMPS:ARP:1,2018-01-03T19:54:00Z,28.4330,-82.6670,-9.948,1111122 
COMPS,ioos:station:USF.COMPS:ARP:1,2018-01-03T20:00:00Z,28.4330,-82.6670,-9.921,1111122 
COMPS,ioos:station:USF.COMPS:ARP:1,2018-01-03T20:06:00Z,28.4330,-82.6670,-9.901,1111122 
COMPS,ioos:station:USF.COMPS:ARP:1,2018-01-03T20:12:00Z,28.4330,-82.6670,-9.881,1111122 
COMPS,ioos:station:USF.COMPS:ARP:1,2018-01-03T20:18:00Z,28.4330,-82.6670,-9.872,1111122 
COMPS,ioos:station:USF.COMPS:ARP:1,2018-01-03T20:24:00Z,28.4330,-82.6670,-9.869,1111122 
COMPS,ioos:station:USF.COMPS:ARP:1,2018-01-03T20:30:00Z,28.4330,-82.6670,-9.862,1111122 
COMPS,ioos:station:USF.COMPS:ARP:1,2018-01-03T20:36:00Z,28.4330,-82.6670,-9.864,1111122 
COMPS,ioos:station:USF.COMPS:ARP:1,2018-01-03T20:42:00Z,28.4330,-82.6670,-9.864,1111122 
COMPS,ioos:station:USF.COMPS:ARP:1,2018-01-03T20:48:00Z,28.4330,-82.6670,-9.88,1111122 
COMPS,ioos:station:USF.COMPS:ARP:1,2018-01-03T20:54:00Z,28.4330,-82.6670,-9.885,1111122 
COMPS,ioos:station:USF.COMPS:ARP:1,2018-01-03T21:00:00Z,28.4330,-82.6670,-9.897,1111122 
COMPS,ioos:station:USF.COMPS:ARP:1,2018-01-03T21:06:00Z,28.4330,-82.6670,-9.899,1111122 
COMPS,ioos:station:USF.COMPS:ARP:1,2018-01-03T21:12:00Z,28.4330,-82.6670,-9.911,1111122 
COMPS,ioos:station:USF.COMPS:ARP:1,2018-01-03T21:18:00Z,28.4330,-82.6670,-9.916,1111122 
COMPS,ioos:station:USF.COMPS:ARP:1,2018-01-03T21:24:00Z,28.4330,-82.6670,-9.932,1111122 
COMPS,ioos:station:USF.COMPS:ARP:1,2018-01-03T21:30:00Z,28.4330,-82.6670,-9.942,1111122 
COMPS,ioos:station:USF.COMPS:ARP:1,2018-01-03T21:36:00Z,28.4330,-82.6670,-9.959,1111122 
COMPS,ioos:station:USF.COMPS:ARP:1,2018-01-03T21:42:00Z,28.4330,-82.6670,-9.976,1111122 
COMPS,ioos:station:USF.COMPS:ARP:1,2018-01-03T21:48:00Z,28.4330,-82.6670,-9.988,1111122 
COMPS,ioos:station:USF.COMPS:ARP:1,2018-01-04T04:48:00Z,28.4330,-82.6670,-9.995,1111122 
COMPS,ioos:station:USF.COMPS:ARP:1,2018-01-04T04:54:00Z,28.4330,-82.6670,-9.965,1111122 
COMPS,ioos:station:USF.COMPS:ARP:1,2018-01-04T05:00:00Z,28.4330,-82.6670,-9.934,1111122 
COMPS,ioos:station:USF.COMPS:ARP:1,2018-01-04T05:06:00Z,28.4330,-82.6670,-9.906,1111122 
COMPS,ioos:station:USF.COMPS:ARP:1,2018-01-04T05:12:00Z,28.4330,-82.6670,-9.88,1111122 
COMPS,ioos:station:USF.COMPS:ARP:1,2018-01-04T05:18:00Z,28.4330,-82.6670,-9.848,1111122 
COMPS,ioos:station:USF.COMPS:ARP:1,2018-01-04T05:24:00Z,28.4330,-82.6670,-9.819,1111122 
COMPS,ioos:station:USF.COMPS:ARP:1,2018-01-04T05:30:00Z,28.4330,-82.6670,-9.795,1111122 
COMPS,ioos:station:USF.COMPS:ARP:1,2018-01-04T05:36:00Z,28.4330,-82.6670,-9.77,1111122 
COMPS,ioos:station:USF.COMPS:ARP:1,2018-01-04T05:42:00Z,28.4330,-82.6670,-9.745,1111122 
COMPS,ioos:station:USF.COMPS:ARP:1,2018-01-04T05:48:00Z,28.4330,-82.6670,-9.723,1111122 
COMPS,ioos:station:USF.COMPS:ARP:1,2018-01-04T05:54:00Z,28.4330,-82.6670,-9.707,1111122 
COMPS,ioos:station:USF.COMPS:ARP:1,2018-01-04T06:00:00Z,28.4330,-82.6670,-9.687,1111122 
COMPS,ioos:station:USF.COMPS:ARP:1,2018-01-04T06:06:00Z,28.4330,-82.6670,-9.668,1111122 
COMPS,ioos:station:USF.COMPS:ARP:1,2018-01-04T06:12:00Z,28.4330,-82.6670,-9.654,1111122 
COMPS,ioos:station:USF.COMPS:ARP:1,2018-01-04T06:18:00Z,28.4330,-82.6670,-9.644,1111122 
COMPS,ioos:station:USF.COMPS:ARP:1,2018-01-04T06:24:00Z,28.4330,-82.6670,-9.632,1111122 
COMPS,ioos:station:USF.COMPS:ARP:1,2018-01-04T06:30:00Z,28.4330,-82.6670,-9.622,1111122 
COMPS,ioos:station:USF.COMPS:ARP:1,2018-01-04T06:36:00Z,28.4330,-82.6670,-9.613,1111122 
COMPS,ioos:station:USF.COMPS:ARP:1,2018-01-04T06:42:00Z,28.4330,-82.6670,-9.606,1111122 
COMPS,ioos:station:USF.COMPS:ARP:1,2018-01-04T06:48:00Z,28.4330,-82.6670,-9.599,1111122 
COMPS,ioos:station:USF.COMPS:ARP:1,2018-01-04T06:54:00Z,28.4330,-82.6670,-9.595,1111122 
COMPS,ioos:station:USF.COMPS:ARP:1,2018-01-04T07:00:00Z,28.4330,-82.6670,-9.598,1111122 
COMPS,ioos:station:USF.COMPS:ARP:1,2018-01-04T07:06:00Z,28.4330,-82.6670,-9.611,1111122 
COMPS,ioos:station:USF.COMPS:ARP:1,2018-01-04T07:12:00Z,28.4330,-82.6670,-9.622,1111122 
COMPS,ioos:station:USF.COMPS:ARP:1,2018-01-04T07:18:00Z,28.4330,-82.6670,-9.63,1111122 
COMPS,ioos:station:USF.COMPS:ARP:1,2018-01-04T07:24:00Z,28.4330,-82.6670,-9.639,1111122 
COMPS,ioos:station:USF.COMPS:ARP:1,2018-01-04T07:30:00Z,28.4330,-82.6670,-9.646,1111122 
COMPS,ioos:station:USF.COMPS:ARP:1,2018-01-04T07:36:00Z,28.4330,-82.6670,-9.651,1111122 
COMPS,ioos:station:USF.COMPS:ARP:1,2018-01-04T07:42:00Z,28.4330,-82.6670,-9.658,1111122 
COMPS,ioos:station:USF.COMPS:ARP:1,2018-01-04T07:48:00Z,28.4330,-82.6670,-9.661,1111122 
COMPS,ioos:station:USF.COMPS:ARP:1,2018-01-04T07:54:00Z,28.4330,-82.6670,-9.671,1111122 
COMPS,ioos:station:USF.COMPS:ARP:1,2018-01-04T08:00:00Z,28.4330,-82.6670,-9.678,1111122 
COMPS,ioos:station:USF.COMPS:ARP:1,2018-01-04T08:06:00Z,28.4330,-82.6670,-9.689,1111122 
COMPS,ioos:station:USF.COMPS:ARP:1,2018-01-04T08:12:00Z,28.4330,-82.6670,-9.703,1111122 
COMPS,ioos:station:USF.COMPS:ARP:1,2018-01-04T08:18:00Z,28.4330,-82.6670,-9.713,1111122 
COMPS,ioos:station:USF.COMPS:ARP:1,2018-01-04T08:24:00Z,28.4330,-82.6670,-9.727,1111122 
COMPS,ioos:station:USF.COMPS:ARP:1,2018-01-04T08:30:00Z,28.4330,-82.6670,-9.742,1111122 
COMPS,ioos:station:USF.COMPS:ARP:1,2018-01-04T08:36:00Z,28.4330,-82.6670,-9.755,1111122 
COMPS,ioos:station:USF.COMPS:ARP:1,2018-01-04T08:42:00Z,28.4330,-82.6670,-9.771,1111122 
COMPS,ioos:station:USF.COMPS:ARP:1,2018-01-04T08:48:00Z,28.4330,-82.6670,-9.788,1111122 
COMPS,ioos:station:USF.COMPS:ARP:1,2018-01-04T08:54:00Z,28.4330,-82.6670,-9.804,1111122 
COMPS,ioos:station:USF.COMPS:ARP:1,2018-01-04T09:00:00Z,28.4330,-82.6670,-9.821,1111122 
COMPS,ioos:station:USF.COMPS:ARP:1,2018-01-04T09:06:00Z,28.4330,-82.6670,-9.837,1111122 
COMPS,ioos:station:USF.COMPS:ARP:1,2018-01-04T09:12:00Z,28.4330,-82.6670,-9.851,1111122 
COMPS,ioos:station:USF.COMPS:ARP:1,2018-01-04T09:18:00Z,28.4330,-82.6670,-9.866,1111122 
COMPS,ioos:station:USF.COMPS:ARP:1,2018-01-04T09:24:00Z,28.4330,-82.6670,-9.88,1111122 
COMPS,ioos:station:USF.COMPS:ARP:1,2018-01-04T09:30:00Z,28.4330,-82.6670,-9.895,1111122 
COMPS,ioos:station:USF.COMPS:ARP:1,2018-01-04T09:36:00Z,28.4330,-82.6670,-9.907,1111122 
COMPS,ioos:station:USF.COMPS:ARP:1,2018-01-04T09:42:00Z,28.4330,-82.6670,-9.919,1111122 
COMPS,ioos:station:USF.COMPS:ARP:1,2018-01-04T09:48:00Z,28.4330,-82.6670,-9.927,1111122 
COMPS,ioos:station:USF.COMPS:ARP:1,2018-01-04T09:54:00Z,28.4330,-82.6670,-9.94,1111122 
COMPS,ioos:station:USF.COMPS:ARP:1,2018-01-04T10:00:00Z,28.4330,-82.6670,-9.953,1111122 
COMPS,ioos:station:USF.COMPS:ARP:1,2018-01-04T10:06:00Z,28.4330,-82.6670,-9.964,1111122 
COMPS,ioos:station:USF.COMPS:ARP:1,2018-01-04T10:12:00Z,28.4330,-82.6670,-9.974,1111122 
COMPS,ioos:station:USF.COMPS:ARP:1,2018-01-04T10:18:00Z,28.4330,-82.6670,-9.987,1111122 
COMPS,ioos:station:USF.COMPS:ARP:1,2018-01-04T20:00:00Z,28.4330,-82.6670,-9.965,1111122 
COMPS,ioos:station:USF.COMPS:ARP:1,2018-01-04T20:06:00Z,28.4330,-82.6670,-9.933,1111122 
COMPS,ioos:station:USF.COMPS:ARP:1,2018-01-04T20:12:00Z,28.4330,-82.6670,-9.907,1111122 
COMPS,ioos:station:USF.COMPS:ARP:1,2018-01-04T20:18:00Z,28.4330,-82.6670,-9.883,1111122 
COMPS,ioos:station:USF.COMPS:ARP:1,2018-01-04T20:24:00Z,28.4330,-82.6670,-9.863,1111122 
COMPS,ioos:station:USF.COMPS:ARP:1,2018-01-04T20:30:00Z,28.4330,-82.6670,-9.844,1111122 
COMPS,ioos:station:USF.COMPS:ARP:1,2018-01-04T20:36:00Z,28.4330,-82.6670,-9.828,1111122 
COMPS,ioos:station:USF.COMPS:ARP:1,2018-01-04T20:42:00Z,28.4330,-82.6670,-9.819,1111122 
COMPS,ioos:station:USF.COMPS:ARP:1,2018-01-04T20:48:00Z,28.4330,-82.6670,-9.811,1111122 
COMPS,ioos:station:USF.COMPS:ARP:1,2018-01-04T20:54:00Z,28.4330,-82.6670,-9.805,1111122 
COMPS,ioos:station:USF.COMPS:ARP:1,2018-01-04T21:00:00Z,28.4330,-82.6670,-9.804,1111122 
COMPS,ioos:station:USF.COMPS:ARP:1,2018-01-04T21:06:00Z,28.4330,-82.6670,-9.801,1111122 
COMPS,ioos:station:USF.COMPS:ARP:1,2018-01-04T21:12:00Z,28.4330,-82.6670,-9.802,1111122 
COMPS,ioos:station:USF.COMPS:ARP:1,2018-01-04T21:18:00Z,28.4330,-82.6670,-9.802,1111122 
COMPS,ioos:station:USF.COMPS:ARP:1,2018-01-04T21:24:00Z,28.4330,-82.6670,-9.803,1111122 
COMPS,ioos:station:USF.COMPS:ARP:1,2018-01-04T21:30:00Z,28.4330,-82.6670,-9.808,1111122 
COMPS,ioos:station:USF.COMPS:ARP:1,2018-01-04T21:36:00Z,28.4330,-82.6670,-9.808,1111122 
COMPS,ioos:station:USF.COMPS:ARP:1,2018-01-04T21:42:00Z,28.4330,-82.6670,-9.817,1111122 
COMPS,ioos:station:USF.COMPS:ARP:1,2018-01-04T21:48:00Z,28.4330,-82.6670,-9.819,1111122 
COMPS,ioos:station:USF.COMPS:ARP:1,2018-01-04T21:54:00Z,28.4330,-82.6670,-9.829,1111122 
COMPS,ioos:station:USF.COMPS:ARP:1,2018-01-04T22:00:00Z,28.4330,-82.6670,-9.837,1111122 
COMPS,ioos:station:USF.COMPS:ARP:1,2018-01-04T22:06:00Z,28.4330,-82.6670,-9.848,1111122 
COMPS,ioos:station:USF.COMPS:ARP:1,2018-01-04T22:12:00Z,28.4330,-82.6670,-9.854,1111122 
COMPS,ioos:station:USF.COMPS:ARP:1,2018-01-04T22:18:00Z,28.4330,-82.6670,-9.863,1111122 
COMPS,ioos:station:USF.COMPS:ARP:1,2018-01-04T22:24:00Z,28.4330,-82.6670,-9.87,1111122 
COMPS,ioos:station:USF.COMPS:ARP:1,2018-01-04T22:30:00Z,28.4330,-82.6670,-9.885,1111122 
COMPS,ioos:station:USF.COMPS:ARP:1,2018-01-04T22:36:00Z,28.4330,-82.6670,-9.886,1111122 
COMPS,ioos:station:USF.COMPS:ARP:1,2018-01-04T22:42:00Z,28.4330,-82.6670,-9.896,1111122 
COMPS,ioos:station:USF.COMPS:ARP:1,2018-01-04T22:48:00Z,28.4330,-82.6670,-9.902,1111122 
COMPS,ioos:station:USF.COMPS:ARP:1,2018-01-04T22:54:00Z,28.4330,-82.6670,-9.91,1111122 
COMPS,ioos:station:USF.COMPS:ARP:1,2018-01-04T23:00:00Z,28.4330,-82.6670,-9.918,1111122 
COMPS,ioos:station:USF.COMPS:ARP:1,2018-01-04T23:06:00Z,28.4330,-82.6670,-9.924,1111122 
COMPS,ioos:station:USF.COMPS:ARP:1,2018-01-04T23:12:00Z,28.4330,-82.6670,-9.932,1111122 
COMPS,ioos:station:USF.COMPS:ARP:1,2018-01-04T23:18:00Z,28.4330,-82.6670,-9.942,1111122 
COMPS,ioos:station:USF.COMPS:ARP:1,2018-01-04T23:24:00Z,28.4330,-82.6670,-9.955,1111122 
COMPS,ioos:station:USF.COMPS:ARP:1,2018-01-04T23:30:00Z,28.4330,-82.6670,-9.97,1111122 
COMPS,ioos:station:USF.COMPS:ARP:1,2018-01-04T23:36:00Z,28.4330,-82.6670,-9.982,1111122 
COMPS,ioos:station:USF.COMPS:ARP:1,2018-01-04T23:42:00Z,28.4330,-82.6670,-9.996,1111122 
COMPS,ioos:station:USF.COMPS:ARP:1,2018-01-05T05:00:00Z,28.4330,-82.6670,-9.997,1111122 
COMPS,ioos:station:USF.COMPS:ARP:1,2018-01-05T05:06:00Z,28.4330,-82.6670,-9.971,1111122 
COMPS,ioos:station:USF.COMPS:ARP:1,2018-01-05T05:12:00Z,28.4330,-82.6670,-9.945,1111122 
COMPS,ioos:station:USF.COMPS:ARP:1,2018-01-05T05:18:00Z,28.4330,-82.6670,-9.919,1111122 
COMPS,ioos:station:USF.COMPS:ARP:1,2018-01-05T05:24:00Z,28.4330,-82.6670,-9.896,1111122 
COMPS,ioos:station:USF.COMPS:ARP:1,2018-01-05T05:30:00Z,28.4330,-82.6670,-9.872,1111122 
COMPS,ioos:station:USF.COMPS:ARP:1,2018-01-05T05:36:00Z,28.4330,-82.6670,-9.846,1111122 
COMPS,ioos:station:USF.COMPS:ARP:1,2018-01-05T05:42:00Z,28.4330,-82.6670,-9.821,1111122 
COMPS,ioos:station:USF.COMPS:ARP:1,2018-01-05T05:48:00Z,28.4330,-82.6670,-9.8,1111122 
COMPS,ioos:station:USF.COMPS:ARP:1,2018-01-05T05:54:00Z,28.4330,-82.6670,-9.776,1111122 
COMPS,ioos:station:USF.COMPS:ARP:1,2018-01-05T06:00:00Z,28.4330,-82.6670,-9.751,1111122 
COMPS,ioos:station:USF.COMPS:ARP:1,2018-01-05T06:06:00Z,28.4330,-82.6670,-9.73,1111122 
COMPS,ioos:station:USF.COMPS:ARP:1,2018-01-05T06:12:00Z,28.4330,-82.6670,-9.709,1111122 
COMPS,ioos:station:USF.COMPS:ARP:1,2018-01-05T06:18:00Z,28.4330,-82.6670,-9.688,1111122 
COMPS,ioos:station:USF.COMPS:ARP:1,2018-01-05T06:24:00Z,28.4330,-82.6670,-9.671,1111122 
COMPS,ioos:station:USF.COMPS:ARP:1,2018-01-05T06:30:00Z,28.4330,-82.6670,-9.657,1111122 
COMPS,ioos:station:USF.COMPS:ARP:1,2018-01-05T06:36:00Z,28.4330,-82.6670,-9.644,1111122 
COMPS,ioos:station:USF.COMPS:ARP:1,2018-01-05T06:42:00Z,28.4330,-82.6670,-9.635,1111122 
COMPS,ioos:station:USF.COMPS:ARP:1,2018-01-05T06:48:00Z,28.4330,-82.6670,-9.632,1111122 
COMPS,ioos:station:USF.COMPS:ARP:1,2018-01-05T06:54:00Z,28.4330,-82.6670,-9.632,1111122 
COMPS,ioos:station:USF.COMPS:ARP:1,2018-01-05T07:00:00Z,28.4330,-82.6670,-9.629,1111122 
COMPS,ioos:station:USF.COMPS:ARP:1,2018-01-05T07:06:00Z,28.4330,-82.6670,-9.634,1111122 
COMPS,ioos:station:USF.COMPS:ARP:1,2018-01-05T07:12:00Z,28.4330,-82.6670,-9.641,1111122 
COMPS,ioos:station:USF.COMPS:ARP:1,2018-01-05T07:18:00Z,28.4330,-82.6670,-9.651,1111122 
COMPS,ioos:station:USF.COMPS:ARP:1,2018-01-05T07:24:00Z,28.4330,-82.6670,-9.656,1111122 
COMPS,ioos:station:USF.COMPS:ARP:1,2018-01-05T07:30:00Z,28.4330,-82.6670,-9.669,1111122 
COMPS,ioos:station:USF.COMPS:ARP:1,2018-01-05T07:36:00Z,28.4330,-82.6670,-9.679,1111122 
COMPS,ioos:station:USF.COMPS:ARP:1,2018-01-05T07:42:00Z,28.4330,-82.6670,-9.688,1111122 
COMPS,ioos:station:USF.COMPS:ARP:1,2018-01-05T07:48:00Z,28.4330,-82.6670,-9.695,1111122 
COMPS,ioos:station:USF.COMPS:ARP:1,2018-01-05T07:54:00Z,28.4330,-82.6670,-9.704,1111122 
COMPS,ioos:station:USF.COMPS:ARP:1,2018-01-05T08:00:00Z,28.4330,-82.6670,-9.708,1111122 
COMPS,ioos:station:USF.COMPS:ARP:1,2018-01-05T08:06:00Z,28.4330,-82.6670,-9.718,1111122 
COMPS,ioos:station:USF.COMPS:ARP:1,2018-01-05T08:12:00Z,28.4330,-82.6670,-9.727,1111122 
COMPS,ioos:station:USF.COMPS:ARP:1,2018-01-05T08:18:00Z,28.4330,-82.6670,-9.735,1111122 
COMPS,ioos:station:USF.COMPS:ARP:1,2018-01-05T08:24:00Z,28.4330,-82.6670,-9.746,1111122 
COMPS,ioos:station:USF.COMPS:ARP:1,2018-01-05T08:30:00Z,28.4330,-82.6670,-9.754,1111122 
COMPS,ioos:station:USF.COMPS:ARP:1,2018-01-05T08:36:00Z,28.4330,-82.6670,-9.76,1111122 
COMPS,ioos:station:USF.COMPS:ARP:1,2018-01-05T08:42:00Z,28.4330,-82.6670,-9.766,1111122 
COMPS,ioos:station:USF.COMPS:ARP:1,2018-01-05T08:48:00Z,28.4330,-82.6670,-9.772,1111122 
COMPS,ioos:station:USF.COMPS:ARP:1,2018-01-05T08:54:00Z,28.4330,-82.6670,-9.777,1111122 
COMPS,ioos:station:USF.COMPS:ARP:1,2018-01-05T09:00:00Z,28.4330,-82.6670,-9.786,1111122 
COMPS,ioos:station:USF.COMPS:ARP:1,2018-01-05T09:06:00Z,28.4330,-82.6670,-9.796,1111122 
COMPS,ioos:station:USF.COMPS:ARP:1,2018-01-05T09:12:00Z,28.4330,-82.6670,-9.807,1111122 
COMPS,ioos:station:USF.COMPS:ARP:1,2018-01-05T09:18:00Z,28.4330,-82.6670,-9.813,1111122 
COMPS,ioos:station:USF.COMPS:ARP:1,2018-01-05T09:24:00Z,28.4330,-82.6670,-9.821,1111122 